TimeEDT,TemperatureF,Dew PointF,Humidity,Sea Level PressureIn,VisibilityMPH,Wind Direction,Wind SpeedMPH,Gust SpeedMPH,PrecipitationIn,Events,Conditions,WindDirDegrees,DateUTC
12:53 AM,55.0,54.0,96,30.09,5.0,Calm,Calm,-,N/A,,Clear,0,2013-09-04 04:53:00
1:53 AM,55.0,53.1,93,30.09,6.0,Calm,Calm,-,N/A,,Clear,0,2013-09-04 05:53:00
2:53 AM,54.0,52.0,93,30.10,7.0,Calm,Calm,-,N/A,,Clear,0,2013-09-04 06:53:00
3:24 AM,53.6,51.8,94,30.11,7.0,Calm,Calm,-,N/A,,Partly Cloudy,0,2013-09-04 07:24:00
3:44 AM,53.6,51.8,94,30.12,2.0,Calm,Calm,-,N/A,,Mostly Cloudy,0,2013-09-04 07:44:00
3:53 AM,53.1,51.1,93,30.11,7.0,Calm,Calm,-,N/A,,Mostly Cloudy,0,2013-09-04 07:53:00
4:06 AM,51.8,51.8,100,30.12,1.8,Calm,Calm,-,N/A,,Overcast,0,2013-09-04 08:06:00
4:16 AM,51.8,51.8,100,30.12,0.5,Calm,Calm,-,N/A,Fog,Fog,0,2013-09-04 08:16:00
4:26 AM,53.6,51.8,94,30.12,0.2,Calm,Calm,-,N/A,Fog,Fog,0,2013-09-04 08:26:00
4:53 AM,52.0,52.0,100,30.12,0.2,Calm,Calm,-,N/A,Fog,Fog,0,2013-09-04 08:53:00
5:07 AM,51.8,51.8,100,30.13,0.5,Calm,Calm,-,0.01,Fog,Fog,0,2013-09-04 09:07:00
5:18 AM,53.6,51.8,94,30.14,0.2,Calm,Calm,-,0.01,Fog,Fog,0,2013-09-04 09:18:00
5:27 AM,51.8,51.8,100,30.14,0.2,Calm,Calm,-,0.01,Fog,Fog,0,2013-09-04 09:27:00
5:53 AM,53.1,52.0,96,30.13,0.2,Calm,Calm,-,0.01,Fog,Fog,0,2013-09-04 09:53:00
6:32 AM,51.8,51.8,100,30.14,0.2,Calm,Calm,-,N/A,Fog,Fog,0,2013-09-04 10:32:00
6:42 AM,51.8,51.8,100,30.15,0.5,Calm,Calm,-,N/A,Fog,Fog,0,2013-09-04 10:42:00
6:50 AM,51.8,51.8,100,30.15,0.1,Calm,Calm,-,N/A,Fog,Fog,0,2013-09-04 10:50:00
6:53 AM,52.0,51.1,97,30.14,0.1,Calm,Calm,-,N/A,Fog,Fog,0,2013-09-04 10:53:00
7:53 AM,53.1,53.1,100,30.17,0.1,Calm,Calm,-,N/A,Fog,Fog,0,2013-09-04 11:53:00
8:53 AM,54.0,54.0,100,30.18,0.1,Calm,Calm,-,N/A,Fog,Fog,0,2013-09-04 12:53:00
9:18 AM,55.4,55.4,100,30.19,0.1,Calm,Calm,-,N/A,Fog,Fog,0,2013-09-04 13:18:00
9:34 AM,57.2,55.4,94,30.19,0.5,Calm,Calm,-,N/A,Fog,Fog,0,2013-09-04 13:34:00
9:49 AM,57.2,55.4,94,30.19,1.0,Calm,Calm,-,N/A,,Mist,0,2013-09-04 13:49:00
9:53 AM,57.9,55.9,93,30.19,1.5,Calm,Calm,-,N/A,,Overcast,0,2013-09-04 13:53:00
10:00 AM,59.0,57.2,94,30.19,3.0,Calm,Calm,-,N/A,,Mostly Cloudy,0,2013-09-04 14:00:00
10:14 AM,60.8,57.2,88,30.19,8.0,Calm,Calm,-,N/A,,Scattered Clouds,0,2013-09-04 14:14:00
10:53 AM,66.0,57.0,73,30.18,10.0,Calm,Calm,-,N/A,,Partly Cloudy,0,2013-09-04 14:53:00
11:53 AM,68.0,54.0,61,30.18,10.0,Calm,Calm,-,N/A,,Partly Cloudy,0,2013-09-04 15:53:00
12:53 PM,73.0,55.9,55,30.17,10.0,North,5.8,-,N/A,,Clear,10,2013-09-04 16:53:00
1:53 PM,73.9,54.0,50,30.15,10.0,Variable,3.5,-,N/A,,Clear,0,2013-09-04 17:53:00
2:53 PM,75.9,55.9,50,30.14,10.0,WSW,5.8,-,N/A,,Clear,240,2013-09-04 18:53:00
3:53 PM,77.0,55.9,48,30.13,10.0,WNW,5.8,-,N/A,,Clear,300,2013-09-04 19:53:00
4:53 PM,75.9,57.0,52,30.13,10.0,Variable,6.9,-,N/A,,Clear,0,2013-09-04 20:53:00
5:53 PM,75.9,57.0,52,30.13,10.0,Variable,4.6,-,N/A,,Clear,0,2013-09-04 21:53:00
6:53 PM,75.0,57.9,55,30.13,10.0,West,4.6,-,N/A,,Clear,270,2013-09-04 22:53:00
7:53 PM,69.1,60.1,73,30.12,10.0,Calm,Calm,-,N/A,,Clear,0,2013-09-04 23:53:00
8:53 PM,64.9,60.1,84,30.13,9.0,Calm,Calm,-,N/A,,Unknown,0,2013-09-05 00:53:00
9:53 PM,63.0,60.1,90,30.14,9.0,Calm,Calm,-,N/A,,Clear,0,2013-09-05 01:53:00
10:53 PM,61.0,59.0,93,30.14,9.0,Calm,Calm,-,N/A,,Clear,0,2013-09-05 02:53:00
11:53 PM,60.1,57.9,93,30.14,9.0,Calm,Calm,-,N/A,,Clear,0,2013-09-05 03:53:00